Torna al catalogo

NOAA 16 DEB

AttivoSSO
NORAD 41077·DEBRIS·🇺🇸 United States

Lanciato Sep 21, 2000 da Vandenberg Space Force Base

Loading…

Prossimi Passaggi (prossime 24 ore)

TLE

AggiornatoSource: Space-Track

Epoca: Sep 14, 2026, 06:49 UTC

1 41077U 00055AL  26257.28412169  .00000256  00000-0  21471-3 0  9995
2 41077  98.8078 264.8035 0111892 301.4515  57.5747 13.93983500548654

Traccia NOAA 16 DEB in tempo reale con AllMySat

Download on the App Store